Location: Newark
(43.0000°N, 1.6781°W)
Time: 01:11:22
(UTC+00:00)

X-37B - Pass Details

Date: 16 December 2021
Orbit: 334 x 337 km, 45.0° (Epoch: 11 January)

Event Time Altitude Azimuth Distance (km) Brightness Sun altitude
Rises 17:04:00 0° 282° (WNW) 2,106 5.2 -5.8°
Reaches altitude 10° 17:06:02 10° 286° (WNW) 1,268 4.0 -6.1°
Maximum altitude 17:08:50 59° 8° (N) 390 0.4 -6.6°
Drops below altitude 10° 17:11:39 10° 89° (E) 1,266 2.6 -7.0°
Enters shadow 17:12:04 - 91° (E) 1,437 2.9 -7.1°
